User: anonymous   Login
Location: Balaclava NSW 2575, Australia
(34.4510°S, 150.4953°E)
Time: 04:08:15
(UTC+10:00)
Language:

A-11 Canister half - Orbit

View from above orbital plane
View from above orbital plane
View from above satellite
View from above satellite

Ground track
Ground track

The orbit data is extracted from the following two-line orbital elements,

1 00051U 60009C   21168.66095518 -.00000052  00000-0  31655-3 0  9990
2 00051  47.2138 297.5616 0108438 168.7528 191.5718 12.18277025708619
Epoch (UTC): 17 June 2021 15:51:46
Eccentricity: 0.0108438
inclination: 47.2138°
perigee height: 1513 km
apogee height: 1686 km
right ascension of ascending node: 297.5616°
argument of perigee: 168.7528°
revolutions per day: 12.18277025
mean anomaly at epoch: 191.5718°
orbit number at epoch: 70861

The dashed part of the orbit path shows where the satellite is in the earth's shadow,  

DLR